Flag for Chad Weather past 2 weeks in Ndjamena, Chad

Now
81 °F

Duststorm.


Feels Like: 80 °F
Forecast: 73 / 98 °F
Wind: 7 mph from Northwest

Location: Ndjamena

Current Time: Mar 1, 2015 at 11:03:21 PM

Latest Report: Mar 1, 2015 at 10:00 PM


Visibility: 3 mi

Pressure: 29.86 "Hg

Humidity: 34%

Dew point: 50 °F

Location of NdjamenaLocation

Historic Weather in Ndjamena — Graph

°F

Ndjamena temperature yesterday

Maximum temperature yesterday: 95 °F (at 3:00 PM)
Minimum temperature yesterday: 70 °F (at 4:00 AM)
Average temperature yesterday: 81 °F

Past Weeks' High & Low Weather Summary

 TemperatureHumidityPressure
High104 °F (Feb 16, 2:00 PM)64% (Feb 26, 7:00 AM)29.95 "Hg (Feb 26, 7:00 AM)
Low64 °F (Feb 15, 7:00 AM)14% (Feb 27, 3:00 PM)29.68 "Hg (Feb 20, 3:00 PM)
Average84 °F30%29.82 "Hg
* Reported Feb 14 9:00 PM — Mar 1 9:00 PM, Ndjamena, Weather by CustomWeather, © 2015

Note: Actual official high and low records may vary slightly from our data, if they occured in-between our weather recording intervals... More about our weather records

Advertising

Ndjamena weather history for previous 24 hours

 ConditionsComfort  
Time TempWeatherWind HumidityBarometerVisibility
9:00 PM
Sun, Mar 1
82 °FDuststorm.8 mph30%29.86 "Hg3 mi
8:00 PM84 °FDuststorm.8 mph27%29.83 "Hg3 mi
7:00 PM88 °FDuststorm.8 mph24%29.80 "Hg3 mi
6:00 PM90 °FDuststorm.12 mph24%29.77 "Hg3 mi
5:00 PM93 °FDuststorm.10 mph21%29.77 "Hg3 mi
4:00 PM95 °FDuststorm.9 mph18%29.74 "Hg3 mi
3:00 PM95 °FDuststorm.9 mph19%29.77 "Hg3 mi
2:00 PM95 °FDuststorm.12 mph18%29.80 "Hg3 mi
1:00 PM95 °FDuststorm.12 mph18%29.83 "Hg3 mi
12:00 PM91 °FDuststorm.12 mph20%29.86 "Hg3 mi
11:00 AM90 °FDuststorm.13 mph21%29.89 "Hg3 mi
10:00 AM84 °FDuststorm.12 mph23%29.92 "Hg2 mi
9:00 AM81 °FDuststorm.12 mph26%29.92 "Hg2 mi
8:00 AM75 °FDuststorm.8 mph29%29.92 "Hg1 mi
7:00 AM72 °FDuststorm.6 mph33%29.89 "Hg1 mi
6:00 AM70 °FDuststorm.6 mph35%29.89 "Hg1 mi
5:00 AM72 °FDuststorm.6 mph33%29.86 "Hg1 mi
4:00 AM73 °FDuststorm.6 mph31%29.86 "Hg1 mi
3:00 AM75 °FDuststorm.6 mph31%29.86 "Hg1 mi
2:00 AM77 °FDuststorm.7 mph30%29.89 "Hg1 mi
1:00 AM77 °FDuststorm.8 mph30%29.89 "Hg2 mi
12:00 AM77 °FDuststorm.6 mph34%29.89 "Hg2 mi
11:00 PM
Sat, Feb 28
77 °FDuststorm.6 mph36%29.89 "Hg2 mi
Weather by CustomWeather, © 2015

See weather overviewHow to use our weather pages